When you browse on this site, cookies collect data to enhance your experience and personalize the content and advertising you see.
Visit our Privacy Policy to learn more. By continuing to use the site, you agree to this use of cookies and data.
  • Em Portugal
  • Lista de países
  • Para 7 dias
  • Temperatura da água
  • Mapas de satélite
  • Mapa do tempo
  • Widgets de tempo
  • user-avatar
    Iniciar Sessão

    Previsão horária em Rozyniec

    Hoje, 21 Fevereiro, Quinta-feira

    Tempo Temperatura Precipitação Vento Pressão Humidade
    00:00 +4°C° 0 mm 3 m/s 750 mmHg 82%
    01:00 +3°C° 0 mm 3 m/s 750 mmHg 84%
    02:00 +3°C° 0 mm 3 m/s 750 mmHg 85%
    03:00 +3°C° 0 mm 3 m/s 750 mmHg 85%
    04:00 +3°C° 0 mm 3 m/s 750 mmHg 86%
    05:00 +3°C° 0 mm 3 m/s 750 mmHg 86%
    06:00 +3°C° 0 mm 3 m/s 750 mmHg 86%
    07:00 +3°C° 0 mm 4 m/s 750 mmHg 87%
    08:00 +4°C° 0 mm 4 m/s 750 mmHg 82%
    09:00 +5°C° 0 mm 5 m/s 750 mmHg 77%
    10:00 +6°C° 0 mm 5 m/s 750 mmHg 73%
    11:00 +6°C° 0.5 mm 5 m/s 750 mmHg 73%
    12:00 +6°C° 0.5 mm 5 m/s 750 mmHg 74%
    13:00 +6°C° 0 mm 5 m/s 750 mmHg 75%
    14:00 +6°C° 0.3 mm 5 m/s 749 mmHg 75%
    15:00 +7°C° 0.3 mm 5 m/s 749 mmHg 74%
    16:00 +7°C° 0.3 mm 6 m/s 749 mmHg 74%
    17:00 +7°C° 0 mm 5 m/s 749 mmHg 76%
    18:00 +6°C° 0 mm 5 m/s 749 mmHg 79%
    19:00 +6°C° 0 mm 5 m/s 749 mmHg 81%
    20:00 +6°C° 0.5 mm 5 m/s 749 mmHg 84%
    21:00 +6°C° 0.5 mm 5 m/s 748 mmHg 86%
    22:00 +5°C° 0.5 mm 6 m/s 748 mmHg 89%
    23:00 +6°C° 1.3 mm 5 m/s 748 mmHg 90%

    Amanhã, 22 Fevereiro, Sexta-feira

    Tempo Temperatura Precipitação Vento Pressão Humidade
    00:00 +6°C° 1.3 mm 5 m/s 748 mmHg 91%
    01:00 +6°C° 1.3 mm 5 m/s 748 mmHg 93%
    02:00 +6°C° 0.7 mm 5 m/s 749 mmHg 93%
    03:00 +6°C° 0.7 mm 5 m/s 749 mmHg 93%
    04:00 +6°C° 0.7 mm 5 m/s 750 mmHg 93%
    05:00 +3°C° 0.2 mm 5 m/s 751 mmHg 90%
    06:00 +2°C° 0.2 mm 6 m/s 752 mmHg 87%
    07:00 -1°C° 0.2 mm 6 m/s 753 mmHg 84%
    08:00 -1°C° 0 mm 6 m/s 754 mmHg 79%
    09:00 -1°C° 0 mm 5 m/s 755 mmHg 74%
    10:00 -1°C° 0 mm 5 m/s 757 mmHg 70%
    11:00 -1°C° 0 mm 5 m/s 757 mmHg 63%
    12:00 0°C° 0 mm 5 m/s 758 mmHg 56%
    13:00 0°C° 0 mm 4 m/s 759 mmHg 49%
    14:00 0°C° 0 mm 4 m/s 759 mmHg 48%
    15:00 0°C° 0 mm 4 m/s 760 mmHg 48%
    16:00 0°C° 0 mm 4 m/s 760 mmHg 48%
    17:00 0°C° 0 mm 3 m/s 761 mmHg 52%
    18:00 -1°C° 0 mm 3 m/s 761 mmHg 55%
    19:00 -2°C° 0 mm 2 m/s 762 mmHg 59%
    20:00 -2°C° 0 mm 2 m/s 762 mmHg 58%
    21:00 -3°C° 0 mm 2 m/s 763 mmHg 57%
    22:00 -3°C° 0 mm 2 m/s 763 mmHg 56%
    23:00 -3°C° 0 mm 2 m/s 764 mmHg 55%

    Depois de amanhã, 23 Fevereiro, Sábado

    Tempo Temperatura Precipitação Vento Pressão Humidade
    00:00 -3°C° 0 mm 2 m/s 764 mmHg 54%
    01:00 -3°C° 0 mm 2 m/s 764 mmHg 52%
    02:00 -3°C° 0 mm 2 m/s 764 mmHg 52%
    03:00 -3°C° 0 mm 2 m/s 763 mmHg 52%
    04:00 -4°C° 0 mm 2 m/s 763 mmHg 52%
    05:00 -4°C° 0 mm 2 m/s 763 mmHg 52%
    06:00 -4°C° 0 mm 2 m/s 763 mmHg 52%
    07:00 -4°C° 0 mm 2 m/s 764 mmHg 51%
    08:00 -3°C° 0 mm 2 m/s 764 mmHg 45%
    09:00 -2°C° 0 mm 2 m/s 764 mmHg 39%
    10:00 -1°C° 0 mm 2 m/s 764 mmHg 32%
    11:00 +1°C° 0 mm 2 m/s 764 mmHg 29%
    12:00 +2°C° 0 mm 2 m/s 764 mmHg 26%
    13:00 +3°C° 0 mm 2 m/s 763 mmHg 23%
    14:00 +3°C° 0 mm 2 m/s 763 mmHg 24%
    15:00 +3°C° 0 mm 2 m/s 763 mmHg 26%
    16:00 +3°C° 0 mm 2 m/s 763 mmHg 27%
    17:00 +2°C° 0 mm 2 m/s 762 mmHg 31%
    18:00 -1°C° 0 mm 2 m/s 762 mmHg 36%
    19:00 -2°C° 0 mm 2 m/s 762 mmHg 40%
    20:00 -2°C° 0 mm 2 m/s 762 mmHg 40%
    21:00 0°C° 0 mm 1 m/s 762 mmHg 40%
    22:00 0°C° 0 mm 1 m/s 762 mmHg 40%
    23:00 0°C° 0 mm 1 m/s 762 mmHg 39%

    24 Fevereiro, Domingo

    Tempo Temperatura Precipitação Vento Pressão Humidade
    00:00 0°C° 0 mm 1 m/s 762 mmHg 38%
    01:00 0°C° 0 mm 1 m/s 762 mmHg 36%
    02:00 0°C° 0 mm 1 m/s 761 mmHg 36%
    03:00 0°C° 0 mm 1 m/s 761 mmHg 36%
    04:00 0°C° 0 mm 1 m/s 761 mmHg 36%
    05:00 0°C° 0 mm 1 m/s 761 mmHg 37%
    06:00 0°C° 0 mm 1 m/s 761 mmHg 37%
    07:00 0°C° 0 mm 1 m/s 761 mmHg 38%
    08:00 +2°C° 0 mm 1 m/s 761 mmHg 35%
    09:00 +3°C° 0 mm 2 m/s 761 mmHg 32%
    10:00 +4°C° 0 mm 2 m/s 761 mmHg 29%
    11:00 +5°C° 0 mm 2 m/s 761 mmHg 29%
    12:00 +7°C° 0 mm 2 m/s 761 mmHg 29%
    13:00 +8°C° 0 mm 3 m/s 760 mmHg 29%
    14:00 +7°C° 0 mm 2 m/s 760 mmHg 34%
    15:00 +7°C° 0 mm 2 m/s 760 mmHg 39%
    16:00 +7°C° 0 mm 2 m/s 760 mmHg 45%
    17:00 +5°C° 0 mm 2 m/s 760 mmHg 49%
    18:00 +4°C° 0 mm 2 m/s 760 mmHg 54%
    19:00 +2°C° 0 mm 2 m/s 760 mmHg 59%
    20:00 +2°C° 0 mm 2 m/s 760 mmHg 60%
    21:00 +2°C° 0 mm 2 m/s 760 mmHg 62%
    22:00 +2°C° 0 mm 2 m/s 761 mmHg 64%
    23:00 +2°C° 0 mm 2 m/s 761 mmHg 65%

    25 Fevereiro, Segunda-feira

    Tempo Temperatura Precipitação Vento Pressão Humidade
    00:00 +1°C° 0 mm 2 m/s 761 mmHg 66%
    01:00 +1°C° 0 mm 2 m/s 761 mmHg 67%
    02:00 +1°C° 0 mm 2 m/s 761 mmHg 68%
    03:00 +1°C° 0 mm 2 m/s 761 mmHg 69%
    04:00 +1°C° 0 mm 2 m/s 761 mmHg 70%
    05:00 +1°C° 0 mm 2 m/s 761 mmHg 71%
    06:00 +1°C° 0 mm 2 m/s 761 mmHg 72%
    07:00 +1°C° 0 mm 2 m/s 761 mmHg 74%
    08:00 +2°C° 0 mm 2 m/s 761 mmHg 69%
    09:00 +4°C° 0 mm 2 m/s 761 mmHg 64%
    10:00 +6°C° 0 mm 2 m/s 761 mmHg 60%
    11:00 +7°C° 0 mm 2 m/s 761 mmHg 57%
    12:00 +9°C° 0 mm 2 m/s 761 mmHg 53%
    13:00 +10°C° 0 mm 2 m/s 761 mmHg 50%
    14:00 +10°C° 0 mm 2 m/s 761 mmHg 53%
    15:00 +10°C° 0 mm 2 m/s 760 mmHg 55%
    16:00 +10°C° 0 mm 2 m/s 760 mmHg 57%
    17:00 +9°C° 0 mm 2 m/s 760 mmHg 62%
    18:00 +7°C° 0 mm 2 m/s 760 mmHg 68%
    19:00 +6°C° 0 mm 2 m/s 760 mmHg 73%
    20:00 +6°C° 0 mm 2 m/s 759 mmHg 74%
    21:00 +5°C° 0 mm 2 m/s 759 mmHg 76%
    22:00 +5°C° 0 mm 2 m/s 759 mmHg 77%
    23:00 +5°C° 0 mm 2 m/s 759 mmHg 79%

    26 Fevereiro, Terça-feira

    Tempo Temperatura Precipitação Vento Pressão Humidade
    00:00 +4°C° 0 mm 2 m/s 759 mmHg 80%
    01:00 +3°C° 0 mm 3 m/s 758 mmHg 82%
    02:00 +3°C° 0 mm 3 m/s 758 mmHg 83%
    03:00 +3°C° 0 mm 3 m/s 757 mmHg 84%
    04:00 +3°C° 0 mm 3 m/s 757 mmHg 85%
    05:00 +3°C° 0 mm 3 m/s 757 mmHg 86%
    06:00 +3°C° 0 mm 4 m/s 756 mmHg 87%
    07:00 +1°C° 0 mm 4 m/s 756 mmHg 88%
    08:00 +4°C° 0 mm 4 m/s 756 mmHg 82%
    09:00 +5°C° 0 mm 5 m/s 756 mmHg 76%
    10:00 +7°C° 0 mm 5 m/s 756 mmHg 70%
    11:00 +8°C° 0 mm 5 m/s 755 mmHg 64%
    12:00 +9°C° 0 mm 5 m/s 755 mmHg 58%
    13:00 +10°C° 0 mm 6 m/s 754 mmHg 52%
    14:00 +10°C° 0 mm 5 m/s 754 mmHg 54%
    15:00 +10°C° 0 mm 5 m/s 754 mmHg 56%
    16:00 +10°C° 0 mm 5 m/s 753 mmHg 58%
    17:00 +9°C° 0 mm 5 m/s 753 mmHg 63%
    18:00 +8°C° 0 mm 4 m/s 753 mmHg 69%
    19:00 +8°C° 0 mm 3 m/s 754 mmHg 74%
    20:00 +8°C° 0 mm 3 m/s 754 mmHg 77%
    21:00 +7°C° 0 mm 3 m/s 754 mmHg 81%
    22:00 +7°C° 0 mm 3 m/s 754 mmHg 84%
    23:00 +7°C° 0 mm 2 m/s 754 mmHg 87%
    Mostrar mais